When you browse on this site, cookies collect data to enhance your experience and personalize the content and advertising you see.
Visit our Privacy Policy to learn more. By continuing to use the site, you agree to this use of cookies and data.
  • In Latvia
  • List of Countries
  • For 7 days
  • Water Temperature
  • Satellite Maps
  • Weather Map
  • Weather Widgets
  • user-avatar
    Login

    Hourly Weather Canberra

    Today, 19 April, Friday

    Time Temperature Precipitation Wind Pressure Humidity
    00:00 +15°C° 0 mm 2 mps 717 mmHg 89%
    01:00 +15°C° 0 mm 2 mps 717 mmHg 89%
    02:00 +15°C° 0 mm 2 mps 717 mmHg 89%
    03:00 +15°C° 0 mm 2 mps 717 mmHg 90%
    04:00 +15°C° 0 mm 1 mps 717 mmHg 90%
    05:00 +15°C° 0 mm 1 mps 717 mmHg 90%
    06:00 +15°C° 0 mm 1 mps 717 mmHg 90%
    07:00 +15°C° 0 mm 1 mps 718 mmHg 91%
    08:00 +16°C° 0 mm 1 mps 718 mmHg 84%
    09:00 +19°C° 0 mm 1 mps 718 mmHg 77%
    10:00 +21°C° 0 mm 1 mps 719 mmHg 67%
    11:00 +21°C° 0 mm 2 mps 718 mmHg 62%
    12:00 +24°C° 0 mm 2 mps 718 mmHg 56%
    13:00 +25°C° 0 mm 2 mps 717 mmHg 51%
    14:00 +25°C° 0.1 mm 2 mps 717 mmHg 51%
    15:00 +25°C° 0.1 mm 2 mps 717 mmHg 51%
    16:00 +25°C° 0 mm 1 mps 716 mmHg 50%
    17:00 +23°C° 0 mm 1 mps 716 mmHg 57%
    18:00 +21°C° 0 mm 1 mps 716 mmHg 64%
    19:00 +16°C° 0 mm 0 mps 716 mmHg 71%
    20:00 +18°C° 0 mm 1 mps 716 mmHg 75%
    21:00 +16°C° 0 mm 1 mps 716 mmHg 79%
    22:00 +15°C° 0 mm 1 mps 717 mmHg 83%
    23:00 +15°C° 0 mm 1 mps 716 mmHg 86%

    Tomorrow, 20 April, Saturday

    Time Temperature Precipitation Wind Pressure Humidity
    00:00 +15°C° 0 mm 1 mps 716 mmHg 88%
    01:00 +14°C° 0 mm 1 mps 716 mmHg 91%
    02:00 +14°C° 0 mm 1 mps 716 mmHg 92%
    03:00 +14°C° 0 mm 1 mps 716 mmHg 92%
    04:00 +13°C° 0 mm 1 mps 716 mmHg 93%
    05:00 +13°C° 0 mm 1 mps 716 mmHg 92%
    06:00 +13°C° 0 mm 1 mps 716 mmHg 92%
    07:00 +13°C° 0 mm 1 mps 716 mmHg 92%
    08:00 +16°C° 0 mm 1 mps 717 mmHg 80%
    09:00 +20°C° 0 mm 1 mps 717 mmHg 68%
    10:00 +23°C° 0 mm 1 mps 717 mmHg 57%
    11:00 +25°C° 0 mm 1 mps 717 mmHg 51%
    12:00 +26°C° 0 mm 1 mps 717 mmHg 45%
    13:00 +27°C° 0 mm 1 mps 716 mmHg 39%
    14:00 +27°C° 0 mm 1 mps 716 mmHg 39%
    15:00 +27°C° 0 mm 1 mps 715 mmHg 39%
    16:00 +26°C° 0 mm 1 mps 715 mmHg 39%
    17:00 +24°C° 0 mm 1 mps 715 mmHg 49%
    18:00 +21°C° 0 mm 1 mps 715 mmHg 58%
    19:00 +19°C° 0 mm 1 mps 715 mmHg 67%
    20:00 +18°C° 0 mm 1 mps 715 mmHg 76%
    21:00 +16°C° 0 mm 1 mps 715 mmHg 85%
    22:00 +16°C° 0 mm 1 mps 716 mmHg 93%
    23:00 +15°C° 0 mm 1 mps 715 mmHg 94%

    Day after tomorrow, 21 April, Sunday

    Time Temperature Precipitation Wind Pressure Humidity
    00:00 +15°C° 0 mm 1 mps 715 mmHg 95%
    01:00 +15°C° 0 mm 1 mps 715 mmHg 97%
    02:00 +15°C° 0 mm 1 mps 715 mmHg 96%
    03:00 +15°C° 0 mm 1 mps 715 mmHg 96%
    04:00 +14°C° 0 mm 0 mps 714 mmHg 96%
    05:00 +13°C° 0 mm 0 mps 714 mmHg 96%
    06:00 +13°C° 0 mm 0 mps 715 mmHg 96%
    07:00 +13°C° 0 mm 0 mps 715 mmHg 96%
    08:00 +16°C° 0 mm 1 mps 715 mmHg 85%
    09:00 +20°C° 0 mm 1 mps 715 mmHg 73%
    10:00 +23°C° 0 mm 1 mps 715 mmHg 61%
    11:00 +24°C° 0 mm 2 mps 715 mmHg 56%
    12:00 +25°C° 0 mm 2 mps 715 mmHg 51%
    13:00 +26°C° 0 mm 2 mps 714 mmHg 46%
    14:00 +26°C° 0 mm 2 mps 714 mmHg 46%
    15:00 +26°C° 0 mm 2 mps 714 mmHg 47%
    16:00 +25°C° 0 mm 2 mps 713 mmHg 48%
    17:00 +23°C° 0 mm 1 mps 713 mmHg 55%
    18:00 +22°C° 0 mm 1 mps 713 mmHg 62%
    19:00 +20°C° 0 mm 1 mps 713 mmHg 68%
    20:00 +19°C° 0 mm 1 mps 713 mmHg 71%
    21:00 +19°C° 0 mm 1 mps 713 mmHg 73%
    22:00 +18°C° 0 mm 1 mps 714 mmHg 76%
    23:00 +16°C° 0 mm 0 mps 713 mmHg 79%

    22 April, Monday

    Time Temperature Precipitation Wind Pressure Humidity
    00:00 +15°C° 0 mm 0 mps 713 mmHg 82%
    01:00 +15°C° 0 mm 0 mps 713 mmHg 85%
    02:00 +15°C° 0.1 mm 0 mps 713 mmHg 86%
    03:00 +16°C° 0.1 mm 1 mps 713 mmHg 87%
    04:00 +16°C° 0.1 mm 1 mps 713 mmHg 87%
    05:00 +16°C° 0 mm 1 mps 713 mmHg 87%
    06:00 +16°C° 0 mm 1 mps 714 mmHg 87%
    07:00 +16°C° 0 mm 1 mps 714 mmHg 86%
    08:00 +19°C° 0 mm 1 mps 714 mmHg 79%
    09:00 +18°C° 0 mm 0 mps 715 mmHg 72%
    10:00 +20°C° 0 mm 0 mps 715 mmHg 64%
    11:00 +23°C° 0.4 mm 1 mps 715 mmHg 63%
    12:00 +23°C° 0.4 mm 1 mps 715 mmHg 62%
    13:00 +24°C° 0.4 mm 1 mps 715 mmHg 60%
    14:00 +23°C° 0.7 mm 2 mps 714 mmHg 64%
    15:00 +21°C° 0.7 mm 2 mps 714 mmHg 68%
    16:00 +21°C° 0.7 mm 2 mps 714 mmHg 71%
    17:00 +19°C° 0.2 mm 2 mps 714 mmHg 79%
    18:00 +18°C° 0.2 mm 2 mps 715 mmHg 87%
    19:00 +16°C° 0.2 mm 3 mps 715 mmHg 94%
    20:00 +16°C° 0 mm 3 mps 715 mmHg 93%
    21:00 +17°C° 0 mm 3 mps 716 mmHg 92%
    22:00 +17°C° 0 mm 3 mps 716 mmHg 91%
    23:00 +17°C° 0.1 mm 3 mps 716 mmHg 91%

    23 April, Tuesday

    Time Temperature Precipitation Wind Pressure Humidity
    00:00 +16°C° 0.1 mm 2 mps 716 mmHg 91%
    01:00 +16°C° 0.1 mm 2 mps 716 mmHg 91%
    02:00 +16°C° 0 mm 2 mps 716 mmHg 92%
    03:00 +16°C° 0 mm 2 mps 715 mmHg 93%
    04:00 +15°C° 0 mm 1 mps 715 mmHg 94%
    05:00 +15°C° 0 mm 1 mps 715 mmHg 94%
    06:00 +15°C° 0 mm 2 mps 716 mmHg 94%
    07:00 +15°C° 0 mm 2 mps 716 mmHg 94%
    08:00 +16°C° 0 mm 2 mps 716 mmHg 90%
    09:00 +17°C° 0 mm 2 mps 716 mmHg 86%
    10:00 +18°C° 0 mm 2 mps 717 mmHg 81%
    11:00 +19°C° 0 mm 2 mps 716 mmHg 77%
    12:00 +20°C° 0 mm 2 mps 716 mmHg 73%
    13:00 +20°C° 0 mm 2 mps 715 mmHg 68%
    14:00 +21°C° 0 mm 2 mps 715 mmHg 66%
    15:00 +21°C° 0 mm 2 mps 715 mmHg 64%
    16:00 +23°C° 0 mm 2 mps 714 mmHg 63%
    17:00 +20°C° 0 mm 2 mps 715 mmHg 72%
    18:00 +19°C° 0 mm 1 mps 715 mmHg 81%
    19:00 +16°C° 0 mm 1 mps 715 mmHg 90%
    20:00 +16°C° 0 mm 1 mps 715 mmHg 92%
    21:00 +15°C° 0 mm 1 mps 715 mmHg 94%
    22:00 +15°C° 0 mm 1 mps 715 mmHg 96%
    23:00 +16°C° 0.1 mm 1 mps 715 mmHg 95%

    24 April, Wednesday

    Time Temperature Precipitation Wind Pressure Humidity
    00:00 +16°C° 0.1 mm 1 mps 714 mmHg 95%
    01:00 +16°C° 0.1 mm 1 mps 714 mmHg 94%
    02:00 +15°C° 0 mm 0 mps 714 mmHg 94%
    03:00 +15°C° 0 mm 0 mps 714 mmHg 93%
    04:00 +15°C° 0 mm 0 mps 714 mmHg 93%
    05:00 +14°C° 0 mm 0 mps 714 mmHg 94%
    06:00 +14°C° 0 mm 0 mps 714 mmHg 95%
    07:00 +13°C° 0 mm 0 mps 714 mmHg 97%
    08:00 +16°C° 0 mm 1 mps 714 mmHg 87%
    09:00 +19°C° 0 mm 2 mps 714 mmHg 77%
    10:00 +21°C° 0 mm 2 mps 714 mmHg 68%
    11:00 +22°C° 0.1 mm 3 mps 714 mmHg 64%
    12:00 +23°C° 0.1 mm 4 mps 713 mmHg 60%
    13:00 +25°C° 0.1 mm 4 mps 712 mmHg 56%
    14:00 +23°C° 0.9 mm 4 mps 712 mmHg 62%
    15:00 +22°C° 0.9 mm 4 mps 711 mmHg 67%
    16:00 +21°C° 0.9 mm 4 mps 711 mmHg 73%
    17:00 +20°C° 0.5 mm 3 mps 711 mmHg 79%
    18:00 +18°C° 0.5 mm 3 mps 711 mmHg 85%
    19:00 +17°C° 0.5 mm 2 mps 711 mmHg 90%
    20:00 +17°C° 0.1 mm 2 mps 711 mmHg 92%
    21:00 +16°C° 0.1 mm 2 mps 711 mmHg 93%
    22:00 +16°C° 0.1 mm 2 mps 711 mmHg 94%
    23:00 +15°C° 0 mm 2 mps 711 mmHg 94%
    Show more